Lid_Strength_Index
2 2 2 2 2 2 2 3 3 3 4 4 4 3 3 3 3 4 6 5 5 7 6 5 5 6 7 7 10 8 8 8 8 10 11 11 12 12 11 11 12 12 12 11 12 13 16 9 8 10 8 7 8 8
2 3 2 2 2 2 3 3 3 3 4 4 4 3 3 3 3 3 7 5 4 6 7 4 3 2 3 4 6 6 8 8 8 10 10 10 11 12 12 13 10 12 12 12 12 12 9 8 9 8 7 8 8 8
3 3 2 2 2 2 3 3 3 3 4 4 4 4 3 3 3 4 6 6 6 8 7 6 6 3 1 2 2 7 6 6 7 7 9 10 11 11 13 13 12 11 11 10 10 9 9 9 9 9 8 10 9 9
3 3 2 2 2 2 3 3 3 3 4 4 4 4 4 4 4 4 6 6 6 7 10 8 3 3 1 1 2 3 4 5 5 6 8 9 11 9 13 12 13 11 10 10 11 10 8 8 10 10 9 10 9 9
3 3 3 2 2 2 3 3 3 4 4 4 4 4 4 4 4 4 5 6 5 8 11 9 5 3 2 2 2 3 4 5 6 7 7 9 8 10 10 12 13 10 11 11 12 11 11 10 10 10 10 10 10 11
3 3 3 3 2 2 3 3 4 4 4 4 4 4 4 4 4 5 8 5 5 5 9 11 5 5 4 4 3 3 4 5 6 7 6 6 8 9 11 13 10 10 10 10 12 11 11 10 10 10 11 10 10 10
3 3 3 3 2 3 3 3 4 4 4 4 4 4 4 4 5 8 9 6 5 5 9 11 10 6 5 4 4 4 5 5 5 6 7 6 6 7 10 13 11 10 9 9 10 10 11 11 11 10 10 9 10 10
3 3 3 3 3 3 3 3 4 4 3 4 4 5 4 5 5 7 5 5 5 7 8 12 11 9 5 7 7 4 5 5 6 6 6 7 6 7 11 9 9 10 10 10 10 10 11 10 10 10 9 9 10 11
3 3 3 3 3 3 3 3 4 4 4 4 4 4 5 6 8 7 4 5 5 8 12 12 13 13 7 8 6 6 7 9 6 7 7 7 8 11 9 7 8 9 10 10 10 10 11 11 11 10 10 10 10 11
3 3 3 3 3 3 3 3 4 4 4 4 5 7 9 7 4 5 8 10 10 11 11 13 11 13 10 10 10 10 8 10 11 10 9 11 10 7 6 6 5 6 8 9 11 11 11 11 11 10 10 10 10 10
3 3 3 3 3 3 3 3 4 4 5 5 6 8 6 4 7 9 12 12 13 14 13 12 12 12 9 12 12 10 11 11 13 11 12 12 12 10 8 6 5 4 4 5 7 8 9 9 10 10 10 9 9 9
3 3 3 3 3 3 3 4 4 4 4 5 6 5 6 8 9 11 13 13 14 13 12 13 11 11 10 9 11 10 11 11 14 11 13 14 12 8 7 6 5 4 4 4 4 6 8 9 9 10 10 9 9 9
3 3 3 3 3 3 3 3 4 4 4 4 6 7 8 7 12 13 14 13 13 11 11 11 11 10 9 9 10 11 13 12 11 12 14 13 9 8 7 5 5 4 4 4 4 5 6 7 8 9 10 9 9 8
3 3 3 3 3 2 2 3 4 4 4 5 7 11 9 10 9 9 9 9 6 7 9 8 9 10 9 11 11 13 11 13 14 15 14 10 9 9 8 6 6 5 4 5 5 4 5 6 6 7 8 9 9 9
3 4 3 3 3 3 3 4 4 3 3 6 6 11 9 7 6 6 5 6 5 5 7 8 8 8 10 11 12 12 13 14 13 13 10 8 8 8 9 9 8 6 5 5 5 5 4 4 5 5 5 6 7 8
3 4 3 3 3 3 4 4 3 3 3 5 6 8 6 7 7 6 6 6 4 6 6 6 9 10 10 9 11 13 14 15 12 8 6 6 6 7 8 8 8 7 7 7 5 3 4 4 3 4 4 4 5 6
4 3 3 3 4 3 4 3 3 4 5 6 7 5 6 6 7 6 5 5 4 5 8 7 10 11 8 10 12 10 12 9 7 6 6 6 7 6 6 6 7 8 8 8 8 7 4 3 3 3 4 3 4 5
4 3 4 4 4 3 2 3 3 5 7 6 7 6 5 5 6 5 5 5 5 6 6 8 6 9 11 12 12 9 8 6 5 6 8 8 7 7 6 6 7 8 8 8 8 7 7 4 4 4 3 3 3 3
4 4 4 4 4 4 3 3 3 7 7 6 5 5 5 6 5 5 5 5 5 5 6 7 9 11 10 8 9 8 7 7 7 7 7 7 7 7 7 7 7 6 7 8 8 8 7 6 4 3 3 3 3 3
4 5 4 4 4 3 5 5 2 5 7 6 5 6 6 6 6 6 6 6 7 7 9 9 9 8 8 8 7 7 7 7 8 9 9 8 7 6 6 7 8 7 7 7 8 8 7 6 5 4 3 3 3 4
3 2 4 4 2 2 4 5 5 5 5 6 5 6 6 4 5 7 7 6 8 8 8 7 7 7 6 7 7 7 7 7 8 8 8 9 7 7 7 7 7 7 7 7 8 9 6 6 5 4 4 4 5 4
2 3 2 2 3 3 4 3 5 4 5 6 6 5 7 7 7 6 5 7 7 6 5 5 5 5 6 7 7 7 7 7 7 7 8 8 8 8 8 7 7 7 7 7 7 6 7 5 6 5 5 5 6 8
3 2 2 3 5 7 7 3 6 6 8 8 6 8 8 8 6 4 7 5 5 4 4 4 5 6 7 6 6 7 7 7 7 8 8 8 7 7 8 7 7 7 8 7 5 5 6 8 6 6 6 7 7 9
4 3 5 6 6 8 5 7 5 6 7 8 9 10 9 8 5 7 8 6 4 4 4 5 6 6 6 6 8 8 8 7 7 8 8 8 8 8 7 7 7 7 7 6 5 5 5 5 8 8 8 8 8 9
7 7 6 9 5 7 8 8 7 7 9 8 9 9 7 6 8 8 8 6 5 5 4 4 6 7 7 7 7 7 6 7 8 8 8 8 8 8 8 7 6 6 6 6 6 5 5 5 5 6 8 8 8 9
9 6 8 7 7 8 8 9 8 9 8 9 9 7 6 8 10 10 7 5 4 4 4 4 6 7 8 7 8 8 7 6 7 8 8 7 7 8 8 8 7 6 5 5 5 5 5 5 5 6 6 7 9 8
9 8 6 4 5 6 7 6 6 7 9 9 8 8 8 11 10 7 5 4 3 3 3 3 4 6 6 6 6 6 6 6 7 7 6 6 6 6 7 7 7 6 4 4 4 5 5 5 5 6 6 6 6 6
6 6 8 6 6 5 8 7 8 8 8 6 6 8 9 9 8 5 4 3 3 4 5 4 5 5 5 6 6 6 6 5 5 5 6 6 5 5 5 5 4 7 4 4 4 4 5 5 5 5 6 6 6 6
6 5 5 7 7 7 7 7 7 5 4 6 7 8 7 5 4 3 3 3 4 5 6 6 6 5 6 6 5 5 5 6 6 7 8 8 7 6 4 4 4 4 3 3 6 5 5 5 5 5 5 5 5 5
6 4 7 7 8 8 6 4 5 4 4 4 5 5 4 4 3 3 4 5 5 5 5 5 6 5 5 5 5 6 5 5 5 6 7 7 6 5 4 4 4 3 3 3 4 3 5 4 5 4 5 5 5 5
4 5 6 7 7 6 5 5 4 4 4 4 4 5 5 4 5 6 6 6 5 5 5 6 5 4 4 4 5 5 5 4 4 4 4 4 3 3 4 4 3 3 3 3 4 4 4 4 4 5 5 5 5 5
5 6 7 8 7 5 4 4 5 5 5 5 5 4 4 5 6 6 5 4 4 6 7 4 4 4 4 4 4 3 6 4 4 3 3 3 3 3 3 3 3 3 3 4 4 4 4 4 4 4 5 5 5 5
6 5 6 6 7 7 5 5 6 7 6 6 6 5 5 6 8 5 2 2 4 4 3 3 4 3 3 3 3 4 4 3 4 6 6 6 7 6 3 3 3 3 3 4 4 4 4 4 4 4 4 4 3 3